Carthage, NC

6:02 PM EST on December 02, 2016 (GMT -0500)
Moore County

Weather History for KSOP - March, 2012

Change the Weather History Date:

Saturday, March 3, 2012

  Actual Average Record
Temperature  
Mean Temperature 60 °F -  
Max Temperature 66 °F 57 °F 82 °F (1997)
Min Temperature 53 °F 36 °F 15 °F (2009)
Degree Days  
Heating Degree Days 6    
Growing Degree Days 10 (Base 50)    
Moisture  
Dew Point 54 °F    
Average Humidity 82    
Maximum Humidity 94    
Minimum Humidity 72    
Precipitation  
Precipitation 1.18 in - - ()
Sea Level Pressure  
Sea Level Pressure 29.70 in    
Wind  
Wind Speed 9 mph (SW)    
Max Wind Speed 17 mph    
Max Gust Speed 25 mph    
Visibility 10 miles    
Events Thunderstorm    
Averages and records for this station are not official NWS values.
T = Trace of Precipitation, MM = Missing Value Source: NWS Daily Summary

Daily Weather History Graph

Daily Weather History Graph

Search for Another Location

Airport or City:

Trip Planner

Search our weather history database for the weather conditions in past years. The results will help you decide how hot, cold, wet, or windy it might be!

Date:

Astronomy

Mar. 03, 2012 Rise Set
Actual Time 6:43 AM EST 6:15 PM EST
Civil Twilight 6:18 AM EST 6:40 PM EST
Nautical Twilight 5:49 AM EST 7:10 PM EST
Astronomical Twilight 5:19 AM EST 7:39 PM EST
Moon 1:32 PM EST (3/3) 3:10 AM EST (3/3)
Length of Visible Light 12h 22m
Length of Day
11h 31m
Waxing Gibbous, 75% of the Moon is Illuminated
Mar 3
Waxing Gibbous
Mar 8
Full
Mar 14
Last Quarter
Mar 22
New
Mar 30
First Quarter

Hourly Weather History & Observations

Time (EST) Temp. Dew Point Humidity Pressure Visibility Wind Dir Wind Speed Gust Speed Precip Events Conditions
12:15 AM 66.2 °F 57.2 °F 73% 29.71 in 10.0 mi SSW 16.1 mph - N/A   Clear
12:35 AM 66.2 °F 57.2 °F 73% 29.70 in 10.0 mi SW 15.0 mph 21.9 mph N/A   Clear
12:55 AM 66.2 °F 59.0 °F 78% 29.70 in 10.0 mi SSW 13.8 mph 21.9 mph N/A   Clear
1:15 AM 66.2 °F 59.0 °F 78% 29.69 in 10.0 mi SSW 17.3 mph 23.0 mph N/A   Clear
1:35 AM 66.2 °F 57.2 °F 73% 29.69 in 10.0 mi SSW 15.0 mph 21.9 mph N/A   Clear
1:55 AM 66.2 °F 57.2 °F 73% 29.68 in 10.0 mi SSW 16.1 mph 20.7 mph N/A   Partly Cloudy
2:15 AM 66.2 °F 57.2 °F 73% 29.67 in 10.0 mi SSW 12.7 mph 20.7 mph N/A   Scattered Clouds
2:35 AM 66.2 °F 57.2 °F 73% 29.66 in 10.0 mi SSW 12.7 mph - N/A   Mostly Cloudy
2:55 AM 64.4 °F 57.2 °F 77% 29.66 in 10.0 mi SSW 11.5 mph 17.3 mph N/A   Overcast
3:15 AM 64.4 °F 59.0 °F 83% 29.65 in 10.0 mi SSW 12.7 mph 16.1 mph 0.01 in   Overcast
3:35 AM 62.6 °F 59.0 °F 88% 29.64 in 10.0 mi SSW 11.5 mph 16.1 mph 0.08 in   Mostly Cloudy
3:55 AM 62.6 °F 59.0 °F 88% 29.63 in 10.0 mi SSW 12.7 mph - 0.10 in   Mostly Cloudy
4:15 AM 62.6 °F 59.0 °F 88% 29.63 in 10.0 mi SSW 15.0 mph 20.7 mph 0.04 in   Mostly Cloudy
4:35 AM 62.6 °F 60.8 °F 94% 29.68 in 9.0 mi WNW 12.7 mph 25.3 mph 0.17 in   Scattered Clouds
4:55 AM 60.8 °F 55.4 °F 82% 29.66 in 10.0 mi West 6.9 mph - 0.24 in   Scattered Clouds
5:15 AM 59.0 °F 55.4 °F 88% 29.69 in 7.0 mi WSW 8.1 mph - 0.27 in Thunderstorm Partly Cloudy
5:35 AM 59.0 °F 55.4 °F 88% 29.66 in 10.0 mi Calm Calm - 0.43 in   Partly Cloudy
5:55 AM 59.0 °F 55.4 °F 88% 29.67 in 10.0 mi Calm Calm - 0.59 in Thunderstorm Clear
6:15 AM 59.0 °F 55.4 °F 88% 29.68 in 10.0 mi WSW 9.2 mph - 0.05 in   Partly Cloudy
6:35 AM 59.0 °F 55.4 °F 88% 29.70 in 10.0 mi WSW 5.8 mph - 0.17 in Thunderstorm Partly Cloudy
6:55 AM 59.0 °F 55.4 °F 88% 29.70 in 10.0 mi WSW 6.9 mph - 0.22 in   Clear
7:15 AM 59.0 °F 55.4 °F 88% 29.68 in 10.0 mi SW 4.6 mph - 0.01 in   Scattered Clouds
7:55 AM 59.0 °F 55.4 °F 88% 29.67 in 10.0 mi SW 6.9 mph - 0.02 in   Overcast
8:15 AM 59.0 °F 55.4 °F 88% 29.70 in 10.0 mi SW 10.4 mph - N/A   Overcast
8:35 AM 59.0 °F 55.4 °F 88% 29.71 in 10.0 mi SW 9.2 mph - N/A   Overcast
8:55 AM 60.8 °F 55.4 °F 82% 29.70 in 10.0 mi SSW 10.4 mph - 0.01 in   Mostly Cloudy
9:15 AM 60.8 °F 57.2 °F 88% 29.72 in 10.0 mi SW 11.5 mph - N/A   Overcast
9:35 AM 60.8 °F 57.2 °F 88% 29.71 in 10.0 mi SW 10.4 mph 19.6 mph N/A   Overcast
9:55 AM 60.8 °F 57.2 °F 88% 29.71 in 10.0 mi West 10.4 mph - N/A   Overcast
10:15 AM 60.8 °F 55.4 °F 82% 29.74 in 10.0 mi SW 12.7 mph 23.0 mph N/A   Overcast
10:35 AM 60.8 °F 55.4 °F 82% 29.70 in 10.0 mi SSW 10.4 mph 19.6 mph N/A   Overcast
10:55 AM 60.8 °F 57.2 °F 88% 29.69 in 10.0 mi SW 6.9 mph - N/A   Overcast
11:15 AM 60.8 °F 57.2 °F 88% 29.69 in 10.0 mi SW 8.1 mph - N/A   Overcast
11:35 AM 59.0 °F 53.6 °F 82% 29.74 in 10.0 mi NW 4.6 mph - N/A   Overcast
11:55 AM 57.2 °F 51.8 °F 82% 29.69 in 10.0 mi Calm Calm - N/A   Overcast
12:15 PM 59.0 °F 53.6 °F 82% 29.72 in 10.0 mi Calm Calm - N/A   Overcast
12:35 PM 59.0 °F 53.6 °F 82% 29.73 in 10.0 mi Calm Calm - N/A   Overcast
12:55 PM 59.0 °F 53.6 °F 82% 29.69 in 10.0 mi Calm Calm - N/A   Overcast
1:15 PM 59.0 °F 55.4 °F 88% 29.71 in 10.0 mi NNW 4.6 mph - N/A   Overcast
1:35 PM 57.2 °F 53.6 °F 88% 29.65 in 10.0 mi East 4.6 mph - N/A   Overcast
1:55 PM 57.2 °F 51.8 °F 82% 29.70 in 10.0 mi Calm Calm - N/A   Overcast
2:15 PM 57.2 °F 53.6 °F 88% 29.68 in 10.0 mi Calm Calm - N/A   Overcast
2:35 PM 57.2 °F 51.8 °F 82% 29.72 in 10.0 mi NNW 3.5 mph - N/A   Overcast
2:55 PM 57.2 °F 51.8 °F 82% 29.70 in 10.0 mi North 4.6 mph - N/A   Overcast
3:15 PM 57.2 °F 50.0 °F 77% 29.69 in 10.0 mi Calm Calm - N/A   Scattered Clouds
3:35 PM 57.2 °F 50.0 °F 77% 29.71 in 10.0 mi Calm Calm - N/A   Clear
3:55 PM 57.2 °F 48.2 °F 72% 29.73 in 10.0 mi Calm Calm - N/A   Scattered Clouds
4:15 PM 57.2 °F 48.2 °F 72% 29.73 in 10.0 mi Calm Calm - N/A   Partly Cloudy
4:35 PM 57.2 °F 48.2 °F 72% 29.73 in 10.0 mi Calm Calm - N/A   Scattered Clouds
4:55 PM 57.2 °F 48.2 °F 72% 29.73 in 10.0 mi Calm Calm - N/A   Overcast
5:15 PM 55.4 °F 48.2 °F 77% 29.73 in 10.0 mi Calm Calm - N/A   Overcast
5:35 PM 55.4 °F 48.2 °F 77% 29.73 in 10.0 mi Calm Calm - N/A   Overcast
5:55 PM 55.4 °F 48.2 °F 77% 29.74 in 10.0 mi Calm Calm - N/A   Overcast
6:15 PM 55.4 °F 48.2 °F 77% 29.75 in 10.0 mi Calm Calm - N/A   Overcast
6:35 PM 55.4 °F 48.2 °F 77% 29.75 in 10.0 mi Calm Calm - N/A   Overcast
6:55 PM 53.6 °F 48.2 °F 82% 29.75 in 10.0 mi Calm Calm - N/A   Overcast
7:15 PM 55.4 °F 48.2 °F 77% 29.75 in 10.0 mi Calm Calm - N/A   Overcast
7:35 PM 53.6 °F 48.2 °F 82% 29.74 in 10.0 mi Calm Calm - N/A   Overcast
7:55 PM 53.6 °F 48.2 °F 82% 29.75 in 10.0 mi Calm Calm - N/A   Overcast
8:15 PM 53.6 °F 46.4 °F 77% 29.74 in 10.0 mi Calm Calm - N/A   Overcast
8:35 PM 53.6 °F 46.4 °F 77% 29.72 in 9.0 mi Calm Calm - N/A   Mostly Cloudy
8:55 PM 53.6 °F 46.4 °F 77% 29.71 in 10.0 mi Calm Calm - N/A   Scattered Clouds
9:15 PM 53.6 °F 46.4 °F 77% 29.73 in 10.0 mi Calm Calm - N/A   Scattered Clouds
9:35 PM 51.8 °F 48.2 °F 88% 29.76 in 10.0 mi Calm Calm - N/A   Overcast
9:55 PM 51.8 °F 46.4 °F 82% 29.75 in 10.0 mi Calm Calm - N/A   Overcast
10:15 PM 51.8 °F 46.4 °F 82% 29.74 in 10.0 mi Calm Calm - N/A   Overcast
10:35 PM 51.8 °F 46.4 °F 82% 29.73 in 9.0 mi Calm Calm - N/A   Overcast
10:55 PM 51.8 °F 46.4 °F 82% 29.74 in 10.0 mi Calm Calm - N/A   Overcast
11:15 PM 51.8 °F 46.4 °F 82% 29.76 in 10.0 mi Calm Calm - N/A   Overcast
11:35 PM 51.8 °F 46.4 °F 82% 29.73 in 10.0 mi North 4.6 mph - N/A   Overcast
11:55 PM 51.8 °F 44.6 °F 76% 29.72 in 10.0 mi Calm Calm - 0.01 in   Overcast